Weather History for Dublin, Ireland

Change the Weather History Date:

Saturday, September 21, 2013

  Actual Average Record
Temperature  
Mean Temperature 62 °F -  
Max Temperature 73 °F 58 °F 73 °F (2013)
Min Temperature 52 °F 47 °F 35 °F (2012)
Degree Days  
Heating Degree Days 2    
Growing Degree Days 12 (Base 50)    
Moisture  
Dew Point 56 °F    
Average Humidity 79    
Maximum Humidity 94    
Minimum Humidity 58    
Precipitation  
Precipitation 0.00 in 0.09 in - ()
Sea Level Pressure  
Sea Level Pressure 30.10 in    
Wind  
Wind Speed 7 mph ()    
Max Wind Speed 20 mph    
Max Gust Speed 31 mph    
Visibility 6.6 miles    
Events      
Averages and records for this station are not official NWS values.
T = Trace of Precipitation, MM = Missing Value Source: Averaged Metar Reports

Daily Weather History Graph

Daily Weather History Graph

Search for Another Location

Airport:

Trip Planner

Search our weather history database for the weather conditions in past years. The results will help you decide how hot, cold, wet, or windy it might be!

Date:

Astronomy

Sep. 21, 2013 Rise Set
Actual Time 7:09 AM IST 7:26 PM IST
Civil Twilight 6:34 AM IST 8:00 PM IST
Nautical Twilight 5:52 AM IST 8:42 PM IST
Astronomical Twilight 5:09 AM IST 9:25 PM IST
Moon 8:01 PM IST (9/21) 9:37 AM IST (9/21)
Length of Visible Light 13h 26m
Length of Day
12h 16m
Waning Gibbous, 95% of the Moon is Illuminated
Sep 21
Waning Gibbous
Sep 27
Last Quarter
Oct 5
New
Oct 12
First Quarter
Oct 19
Full

Hourly Weather History & Observations

Time (IST) Temp. Dew Point Humidity Pressure Visibility Wind Dir Wind Speed Gust Speed Precip Events Conditions
12:00 AM 53.6 °F 48.2 °F 82% 30.06 in 6.2 mi SSW 4.6 mph - N/A   Mostly Cloudy
12:30 AM 57.2 °F 50.0 °F 77% 30.06 in 6.2 mi South 4.6 mph - N/A   Mostly Cloudy
1:00 AM 56 °F 48 °F 66% 30.08 in 16 mi SE 4.5 mph - -   Mostly Cloudy
1:00 AM 55.4 °F 48.2 °F 77% 30.06 in 6.2 mi SE 4.6 mph - N/A   Mostly Cloudy
1:30 AM 55.4 °F 48.2 °F 77% 30.06 in 6.2 mi SE 2.3 mph - N/A   Mostly Cloudy
2:00 AM 55.4 °F 50.0 °F 82% 30.06 in 6.2 mi Variable 2.3 mph - N/A   Mostly Cloudy
2:30 AM 53.6 °F 50.0 °F 88% 30.06 in 5.6 mi Variable 3.5 mph - N/A   Light Drizzle
3:00 AM 53.6 °F 51.8 °F 94% 30.06 in 6.2 mi ESE 4.6 mph - N/A   Light Drizzle
3:30 AM 53.6 °F 51.8 °F 94% 30.04 in 6.2 mi ESE 3.5 mph - N/A   Light Drizzle
4:00 AM 53.6 °F 51.8 °F 94% 30.04 in 6.2 mi ESE 3.5 mph - N/A   Light Drizzle
4:30 AM 53.6 °F 51.8 °F 94% 30.04 in 6.2 mi ESE 3.5 mph - N/A   Mostly Cloudy
5:00 AM 53.6 °F 51.8 °F 94% 30.04 in 6.2 mi Variable 2.3 mph - N/A   Mostly Cloudy
5:30 AM 55.4 °F 51.8 °F 88% 30.04 in 6.2 mi SSE 3.5 mph - N/A   Mostly Cloudy
6:00 AM 55.4 °F 53.6 °F 94% 30.04 in 6.2 mi South 2.3 mph - N/A   Mostly Cloudy
6:30 AM 55.4 °F 53.6 °F 94% 30.04 in 6.2 mi Calm Calm - N/A   Mostly Cloudy
7:00 AM 57 °F 54 °F 88% 30.07 in 19 mi SW 2.2 mph - -   Partly Cloudy
7:00 AM 57.2 °F 53.6 °F 88% 30.06 in 6.2 mi SW 2.3 mph - N/A   Mostly Cloudy
7:30 AM 57.2 °F 55.4 °F 94% 30.06 in 6.2 mi WSW 4.6 mph - N/A   Mostly Cloudy
8:00 AM 59.0 °F 55.4 °F 88% 30.06 in 6.2 mi WSW 8.1 mph - N/A   Mostly Cloudy
8:30 AM 59.0 °F 57.2 °F 94% 30.06 in 6.2 mi SW 9.2 mph - N/A   Mostly Cloudy
9:00 AM 60.8 °F 57.2 °F 88% 30.06 in 6.2 mi WSW 9.2 mph - N/A   Mostly Cloudy
9:30 AM 60.8 °F 57.2 °F 88% 30.09 in 6.2 mi SW 11.5 mph - N/A   Mostly Cloudy
10:00 AM 60.8 °F 57.2 °F 88% 30.09 in 6.2 mi SW 12.7 mph - N/A   Mostly Cloudy
10:30 AM 62.6 °F 59.0 °F 88% 30.09 in 6.2 mi WSW 13.8 mph - N/A   Mostly Cloudy
11:00 AM 64.4 °F 59.0 °F 83% 30.09 in 6.2 mi SW 9.2 mph - N/A   Mostly Cloudy
11:30 AM 66.2 °F 59.0 °F 78% 30.09 in 6.2 mi SW 11.5 mph - N/A   Mostly Cloudy
12:00 PM 68.0 °F 55.4 °F 64% 30.09 in 6.2 mi SW 12.7 mph - N/A   Mostly Cloudy
12:30 PM 68.0 °F 57.2 °F 68% 30.12 in 6.2 mi WSW 11.5 mph - N/A   Mostly Cloudy
1:00 PM 70 °F 58 °F 58% 30.12 in 25 mi SW 11.2 mph - -   Partly Cloudy
1:00 PM 69.8 °F 59.0 °F 68% 30.12 in 6.2 mi SW 10.4 mph - N/A   Mostly Cloudy
1:30 PM 69.8 °F 59.0 °F 68% 30.12 in 6.2 mi WSW 18.4 mph - N/A   Mostly Cloudy
2:00 PM 69.8 °F 60.8 °F 73% 30.12 in 6.2 mi WSW 17.3 mph 31.1 mph N/A   Mostly Cloudy
2:30 PM 69.8 °F 60.8 °F 73% 30.12 in 6.2 mi WSW 19.6 mph - N/A   Mostly Cloudy
3:00 PM 71.6 °F 60.8 °F 69% 30.12 in 6.2 mi West 18.4 mph - N/A   Scattered Clouds
3:30 PM 71.6 °F 60.8 °F 69% 30.12 in 6.2 mi WSW 15.0 mph - N/A   Scattered Clouds
4:00 PM 73.4 °F 59.0 °F 61% 30.12 in 6.2 mi WSW 18.4 mph - N/A   Scattered Clouds
4:30 PM 71.6 °F 60.8 °F 69% 30.12 in 6.2 mi West 19.6 mph - N/A   Scattered Clouds
5:00 PM 69.8 °F 59.0 °F 68% 30.12 in 6.2 mi WSW 17.3 mph - N/A   Scattered Clouds
5:30 PM 71.6 °F 59.0 °F 64% 30.12 in 6.2 mi WSW 12.7 mph - N/A   Scattered Clouds
6:00 PM 71.6 °F 59.0 °F 64% 30.12 in 6.2 mi WSW 13.8 mph - N/A   Scattered Clouds
6:30 PM 71.6 °F 59.0 °F 64% 30.15 in 6.2 mi WSW 11.5 mph - N/A   Partly Cloudy
7:00 PM 69 °F 58 °F 60% 30.16 in 25 mi SW 11.2 mph - -   Scattered Clouds
7:00 PM 69.8 °F 59.0 °F 68% 30.15 in 6.2 mi SW 10.4 mph - N/A   Partly Cloudy
7:30 PM 68.0 °F 59.0 °F 73% 30.15 in 6.2 mi SSW 6.9 mph - N/A   Partly Cloudy
8:00 PM 66.2 °F 59.0 °F 78% 30.15 in 6.2 mi SSW 8.1 mph - N/A   Scattered Clouds
8:30 PM 66.2 °F 59.0 °F 78% 30.18 in 6.2 mi South 5.8 mph - N/A   Scattered Clouds
9:00 PM 66.2 °F 59.0 °F 78% 30.18 in 6.2 mi SSW 6.9 mph - N/A   Mostly Cloudy
9:30 PM 66.2 °F 60.8 °F 83% 30.18 in 6.2 mi SW 10.4 mph - N/A   Mostly Cloudy
10:00 PM 66.2 °F 59.0 °F 78% 30.21 in 6.2 mi West 10.4 mph - N/A   Mostly Cloudy
10:30 PM 64.4 °F 59.0 °F 83% 30.21 in 6.2 mi West 9.2 mph - N/A   Mostly Cloudy
11:00 PM 64.4 °F 59.0 °F 83% 30.21 in 6.2 mi WSW 8.1 mph - N/A   Mostly Cloudy
11:30 PM 62.6 °F 59.0 °F 88% 30.21 in 6.2 mi SW 6.9 mph - N/A   Mostly Cloudy